Volver al catálogo

STARLINK-2105

ActivoComunicacionesVLEO
NORAD 47385·PAYLOAD·🇺🇸 United States

Lanzado Jan 20, 2021 desde Cape Canaveral Space Force Station

Loading…

Próximos Pases (próximas 24 horas)

TLE

ActualizadoSource: CelesTrak SupGP

Época: Sep 14, 2026, 20:49 UTC

1 47385C 21005AN  26257.86784722  .00047470  00000+0  15269-2 0  2574
2 47385  53.1584 236.6972 0001529  97.0875 314.0234 15.31670622    14

Sigue STARLINK-2105 en tiempo real con AllMySat

Download on the App Store